Location: Hermaringen
(48.5952°N, 10.2585°E)
Time: 23:46:57
(UTC+00:00)

Cosmos 1763 Rocket - Pass Details

Date: 18 November 2025
Orbit: 728 x 774 km, 74.0° (Epoch: 04 December)

Event Time Altitude Azimuth Distance (km) Brightness Sun altitude
Rises 16:45:44 0° 335° (NNW) 3,241 6.9 -11.5°
Reaches altitude 10° 16:48:08 10° 335° (NNW) 2,304 6.1 -11.8°
Maximum altitude 16:53:21 79° 250° (WSW) 773 3.6 -12.7°
Drops below altitude 10° 16:58:28 10° 164° (SSE) 2,256 5.9 -13.5°
Sets 17:00:48 0° 163° (SSE) 3,169 6.7 -13.9°
